Wetbulb
64.80 60.76 58.66 55.49 46.60 45.26 42.56 50.65 57.47 57.04 58.03 62.03 66.02 65.59 65.59 67.49 64.93 56.88 69.08 71.48 74.15 75.32 76.63 76.15 76.86 76.75 76.71 76.68 76.37 76.59 76.98 76.98 76.15 76.92 77.10 76.95 76.68 76.23 75.73 75.95 75.75 74.70 74.11 73.49 72.71 71.65 70.98 70.95 71.01
59.57 58.74 55.22 49.73 42.71 39.59 42.81 51.99 55.82 57.25 58.70 65.73 67.42 67.32 66.54 65.07 69.36 67.16 68.85 72.67 74.52 75.86 76.24 75.75 76.81 76.50 76.38 76.40 76.32 76.61 77.03 76.93 76.32 76.22 76.70 76.80 76.70 76.60 75.85 76.05 75.70 74.72 74.52 73.88 73.19 72.39 71.59 71.03 70.33
60.11 57.68 48.19 44.72 41.18 40.81 43.40 51.22 54.34 57.69 59.85 61.45 63.52 66.59 66.15 66.80 67.49 67.66 70.77 73.07 74.72 75.20 75.95 75.97 76.83 76.35 76.18 76.38 76.32 76.66 76.83 76.73 76.10 75.60 76.10 76.55 76.72 76.74 76.40 76.25 76.08 74.92 74.66 74.30 73.74 73.01 72.20 71.07 70.56
53.81 49.75 46.72 41.76 40.39 46.80 49.94 51.31 56.67 58.94 60.15 64.17 64.07 62.69 66.84 70.50 69.47 69.10 72.35 73.10 73.61 74.59 75.55 76.73 76.58 76.15 75.98 76.23 76.60 76.77 76.76 76.54 76.07 75.27 75.63 76.28 76.65 76.62 76.41 76.30 76.23 75.79 74.82 74.60 73.96 73.50 73.10 71.85 71.01
50.38 45.64 41.32 39.46 40.59 45.13 48.00 50.68 53.96 57.65 57.45 61.40 67.17 63.97 65.95 68.15 70.11 71.76 71.25 73.22 73.30 74.67 75.71 75.79 76.60 76.35 76.03 76.43 76.72 76.84 76.61 76.29 75.94 75.45 75.30 75.97 76.69 76.49 76.22 76.33 76.43 75.95 75.11 74.61 74.36 73.77 73.43 72.93 72.53
46.87 43.83 38.70 36.58 40.30 46.21 47.98 50.66 53.04 55.96 57.20 64.04 65.54 65.31 66.15 67.76 69.02 69.80 71.05 72.85 74.07 74.43 75.48 75.30 76.58 76.28 75.90 76.15 76.57 76.46 76.36 76.01 75.82 75.50 75.45 76.01 76.48 76.71 76.57 75.82 74.52 76.63 76.25 75.22 74.62 74.28 74.08 73.92 73.82
45.09 40.54 38.08 39.06 42.32 44.17 47.73 51.32 51.63 54.76 56.89 59.77 66.87 63.59 66.17 68.26 68.39 69.50 70.79 73.08 73.78 74.78 74.99 75.08 75.17 75.70 76.10 76.07 76.24 76.21 76.05 75.86 75.54 75.09 74.98 75.75 76.27 76.40 76.33 76.05 75.93 75.90 76.18 76.15 75.84 75.29 74.81 74.19 74.21
45.24 41.54 38.49 38.53 40.81 42.91 47.46 50.16 49.74 57.72 60.75 67.19 64.49 56.83 56.33 68.38 68.21 68.59 71.97 71.92 72.24 73.74 74.40 74.54 74.33 74.17 74.15 74.67 76.31 76.18 75.95 75.81 75.16 74.94 74.98 75.18 75.75 75.90 76.13 75.49 76.00 76.42 75.67 75.93 75.92 75.83 75.49 74.82 74.45
45.63 39.64 35.85 37.89 41.59 45.17 48.56 46.55 51.30 55.84 63.84 63.78 64.90 63.94 66.85 70.33 68.95 70.01 69.64 69.50 70.54 71.92 72.94 73.78 73.79 74.02 73.74 73.41 74.75 75.78 75.80 75.49 75.21 74.94 74.89 74.09 72.83 73.61 74.49 75.29 75.69 76.36 75.92 76.09 76.08 75.82 75.29 74.77 74.28
43.74 37.30 39.89 44.21 45.13 46.23 46.49 46.81 48.24 50.03 52.10 62.49 63.62 68.47 70.04 69.95 67.77 68.16 67.67 67.64 68.05 69.40 70.99 72.69 73.19 73.18 73.15 73.87 73.39 72.97 73.26 73.37 72.53 72.11 72.09 71.25 70.69 71.46 73.52 74.41 75.43 75.91 75.86 75.73 75.92 75.99 75.52 74.78 71.41
41.47 40.96 44.66 47.27 47.22 47.40 46.63 48.04 49.14 48.10 47.01 60.68 62.94 65.31 67.15 68.39 67.69 67.31 67.63 67.81 66.51 68.36 69.71 70.47 71.45 72.12 71.90 71.92 72.26 71.53 71.28 71.33 70.96 70.70 70.59 69.18 69.71 69.80 71.94 70.98 72.30 72.49 74.34 71.90 73.93 74.00 74.41 73.04 71.61
44.21 45.96 45.83 47.95 48.86 46.13 45.90 47.96 48.91 47.71 55.29 64.38 66.83 67.61 67.66 67.93 67.28 66.96 66.94 66.61 67.21 66.80 67.88 68.47 69.22 68.78 68.77 70.68 70.78 69.51 70.51 69.80 69.76 69.19 69.39 67.60 66.61 66.15 67.48 69.80 70.52 70.78 70.87 69.83 69.60 70.33 71.32 72.25 72.49
43.32 46.48 47.78 49.08 47.73 46.09 47.08 46.18 47.32 48.85 63.69 66.19 67.03 65.50 63.77 63.31 63.71 67.57 67.56 66.89 67.42 67.28 67.64 67.00 67.55 67.37 66.78 69.39 69.22 68.93 69.02 69.39 69.43 68.45 68.77 68.57 66.18 66.86 67.46 68.65 68.98 69.71 68.67 69.04 68.11 68.45 68.80 68.98 69.93
47.31 47.93 48.83 47.63 47.06 45.80 45.43 46.70 46.49 49.29 63.78 64.15 65.21 63.73 62.76 62.15 65.14 67.08 66.43 65.62 65.27 65.00 67.57 66.63 66.53 66.63 66.71 68.67 67.40 67.93 68.62 68.80 68.28 67.83 68.44 68.95 67.94 66.55 68.48 68.21 68.14 67.88 67.14 67.64 66.90 67.19 67.87 68.53 68.58
48.96 46.63 48.18 47.37 46.91 47.10 47.67 46.52 46.42 49.51 61.30 60.73 61.54 61.70 62.74 62.25 65.67 66.90 66.19 63.78 63.28 63.96 68.11 67.00 66.73 66.20 67.65 67.88 67.19 67.17 68.13 68.52 67.80 68.17 68.16 69.27 68.61 68.63 69.15 69.17 68.59 68.68 67.71 66.57 66.45 65.39 66.18 65.86 66.85
46.25 44.00 40.76 46.12 49.16 50.19 47.72 43.30 48.67 49.82 48.74 57.24 58.54 59.71 61.09 61.35 63.91 65.18 66.47 65.70 65.11 65.60 66.96 67.99 68.39 67.55 68.47 68.17 67.82 67.12 66.89 67.40 67.82 68.56 68.80 70.05 69.46 70.10 69.57 70.25 69.44 69.12 68.30 67.56 65.96 65.54 65.64 65.38 65.32
41.94 39.12 41.44 45.01 48.61 48.53 46.86 44.98 48.98 49.94 48.54 48.39 56.27 57.91 59.19 62.00 65.85 64.51 63.72 62.85 63.89 64.65 67.08 67.57 68.30 67.69 69.23 69.08 70.39 69.53 69.35 68.78 68.76 69.21 69.75 69.89 70.43 70.78 70.97 70.81 69.77 70.45 69.08 68.27 66.78 65.06 65.57 65.35 66.23
38.91 39.61 41.03 42.06 47.05 46.15 44.89 44.52 47.57 48.49 47.99 48.56 48.97 55.56 59.56 62.11 64.57 65.68 64.59 64.47 66.16 66.90 66.69 67.26 68.90 68.53 69.37 70.64 70.19 70.36 69.79 70.03 70.30 69.73 69.94 71.60 70.91 71.18 70.81 70.64 70.42 69.78 69.67 68.55 67.23 66.61 66.21 67.09 66.35
44.34 43.48 42.99 46.38 48.60 45.91 45.31 44.73 47.02 48.69 47.60 46.93 47.40 57.99 58.59 60.64 62.85 63.74 65.20 66.81 65.96 63.32 64.92 68.06 69.24 69.09 70.35 70.25 69.46 69.20 68.45 68.27 68.35 69.48 69.67 70.07 71.90 71.81 70.83 70.42 70.38 70.11 69.31 68.67 67.87 66.51 65.72 65.13 66.99
45.19 42.87 42.83 45.68 48.26 45.86 45.28 45.31 46.79 48.18 47.70 47.76 48.59 57.01 58.19 58.83 60.50 61.48 61.88 63.06 63.03 64.73 67.17 69.78 70.88 70.92 70.47 71.05 70.35 69.81 69.50 69.67 68.98 69.02 69.97 69.99 71.30 71.47 71.60 70.42 69.13 70.19 69.94 68.71 67.53 67.36 66.32 66.17 66.28
45.10 42.70 43.42 44.00 46.80 46.29 45.22 44.27 44.55 48.22 49.39 53.05 51.37 57.67 59.48 59.72 59.50 60.75 61.77 62.44 63.88 64.21 64.72 64.84 65.98 67.56 69.29 70.86 69.70 71.00 70.26 70.38 69.71 69.72 69.17 70.04 71.20 72.01 71.60 71.52 70.14 69.57 68.11 68.44 67.55 66.61 65.70 64.31 64.82
40.92 47.49 47.32 46.47 43.11 37.88 44.02 36.98 41.99 44.75 49.68 51.32 51.42 54.53 57.06 58.42 60.14 61.39 62.61 63.77 65.88 65.92 66.74 66.86 66.46 65.46 66.15 67.04 67.71 68.24 68.45 68.68 69.44 68.88 70.46 71.25 71.73 71.94 72.50 71.14 70.52 64.83 63.23 62.39 65.64 68.34 66.84 65.13 64.05
44.94 48.54 46.17 46.04 41.88 38.61 39.88 37.02 38.11 47.15 46.51 47.28 49.73 52.83 55.92 57.89 60.70 61.60 62.87 63.66 63.44 62.44 62.12 62.68 63.47 64.33 65.43 66.07 64.04 65.00 65.13 66.83 68.18 68.12 67.58 67.96 68.50 68.47 68.30 70.69 64.89 64.81 64.03 63.83 62.96 63.86 66.70 66.97 65.85
49.42 46.36 43.97 41.41 38.16 33.65 38.11 37.22 37.23 43.14 46.10 47.98 50.27 52.56 55.05 55.48 56.92 59.73 60.93 61.52 60.39 60.43 60.78 61.09 61.19 61.35 62.93 63.78 64.28 64.80 64.93 64.07 64.42 65.03 65.77 65.84 66.52 66.29 66.34 66.73 65.10 66.01 65.26 64.32 62.05 63.03 63.68 67.13 67.49
46.36 39.89 33.63 32.93 32.81 32.26 41.54 39.15 39.42 47.06 49.66 49.30 49.62 50.68 52.17 53.91 53.19 53.89 56.91 57.72 58.17 58.22 58.88 59.34 59.11 58.55 60.51 60.66 61.57 62.14 61.93 62.07 62.35 62.92 63.40 63.28 64.04 64.51 63.63 63.79 64.00 64.41 62.86 61.46 62.07 62.04 60.83 65.83 67.17
43.02 40.38 34.41 29.54 30.63 33.50 41.49 35.93 40.57 48.85 51.91 51.14 51.45 51.17 52.40 53.26 53.41 54.31 54.33 55.71 56.14 57.01 58.21 59.19 58.05 57.48 57.27 58.83 58.58 59.53 59.91 61.03 61.20 61.39 61.91 62.02 62.67 64.21 63.78 62.71 62.31 64.00 64.24 62.90 61.77 60.24 60.38 65.49 67.85
42.98 38.44 43.10 37.50 37.55 34.17 36.53 41.18 45.60 48.79 49.35 50.46 51.22 51.62 51.45 51.95 52.82 53.83 53.82 54.85 54.10 52.79 53.03 53.86 54.86 53.56 53.62 54.15 55.80 56.13 57.59 58.05 58.61 59.05 59.82 60.31 60.35 63.34 63.90 64.35 61.64 61.82 62.54 62.87 62.99 61.46 60.37 64.86 67.13
45.09 46.16 37.40 36.18 28.34 30.27 34.91 36.75 37.72 42.03 45.86 48.65 49.16 50.20 51.40 52.50 53.04 53.69 54.02 54.31 53.18 53.50 52.84 52.81 53.55 52.45 52.53 52.96 53.37 54.36 54.36 55.68 55.90 56.34 56.94 58.01 58.83 60.01 61.33 63.02 63.00 61.69 61.11 60.71 59.98 58.54 60.37 63.05 66.18
39.18 38.59 39.29 38.43 36.21 30.29 28.38 32.60 42.86 42.64 45.90 47.17 48.62 50.12 50.19 51.25 51.98 52.57 53.41 54.07 54.25 52.67 52.62 51.16 50.78 51.25 50.98 51.50 51.23 53.26 53.21 54.42 53.74 53.39 53.99 55.94 56.55 58.77 59.61 60.51 61.83 61.81 62.41 61.79 58.86 58.00 59.47 61.03 63.46
41.89 40.90 39.26 31.97 31.88 33.24 31.04 32.30 46.57 44.66 46.20 47.15 48.22 49.92 49.68 51.62 52.37 52.92 52.85 52.44 52.60 51.92 51.35 50.85 50.74 50.66 50.54 50.76 50.58 50.42 51.85 52.17 51.00 51.62 52.88 54.06 54.77 56.30 57.89 58.97 59.50 60.81 61.34 62.72 61.30 60.61 60.57 61.10 62.00
MSLP
1012.72 1012.46 1012.56 1012.95 1013.94 1013.98 1013.12 1011.54 1010.05 1009.11 1008.73 1007.86 1008.07 1008.38 1008.52 1008.78 1009.79 1011.33 1011.15 1011.66 1012.13 1012.85 1013.37 1013.51 1013.64 1013.91 1014.32 1014.45 1014.68 1015.12 1015.40 1015.64 1015.79 1015.92 1016.08 1016.31 1016.54 1016.73 1016.89 1016.98 1017.02 1017.20 1017.27 1017.31 1017.40 1017.45 1017.50 1017.61 1017.81
1012.58 1012.27 1012.70 1013.23 1013.94 1013.94 1012.78 1009.99 1008.17 1008.06 1008.02 1007.36 1007.51 1007.78 1008.23 1009.06 1009.72 1010.88 1011.61 1012.22 1012.13 1012.56 1013.33 1013.65 1013.79 1013.90 1014.37 1014.70 1014.83 1015.20 1015.50 1015.82 1016.11 1016.23 1016.24 1016.49 1016.71 1016.92 1017.06 1017.11 1017.22 1017.29 1017.50 1017.51 1017.54 1017.60 1017.60 1017.71 1017.88
1012.53 1012.40 1013.47 1013.71 1013.97 1013.11 1011.16 1009.37 1008.36 1007.84 1007.24 1007.15 1007.46 1007.72 1008.38 1009.25 1009.92 1010.62 1011.08 1012.13 1012.37 1012.91 1013.43 1013.63 1013.95 1014.08 1014.22 1014.78 1015.12 1015.35 1015.55 1015.75 1016.23 1016.49 1016.55 1016.71 1016.83 1016.89 1017.13 1017.26 1017.33 1017.45 1017.63 1017.67 1017.62 1017.69 1017.77 1017.91 1018.07
1012.59 1013.06 1013.79 1013.73 1013.22 1011.98 1010.46 1009.07 1007.83 1007.31 1007.12 1006.97 1007.46 1008.55 1008.72 1008.97 1009.61 1010.19 1011.15 1012.12 1012.55 1013.02 1013.34 1013.66 1013.92 1014.14 1014.44 1014.76 1015.33 1015.68 1015.90 1015.98 1016.39 1016.69 1016.76 1016.87 1017.07 1017.07 1017.18 1017.33 1017.42 1017.63 1017.72 1017.81 1017.82 1017.76 1017.81 1017.93 1018.08
1013.07 1013.97 1014.26 1014.15 1013.18 1011.24 1009.42 1007.64 1007.49 1007.25 1007.10 1007.33 1007.34 1009.19 1009.37 1009.59 1009.63 1010.59 1011.24 1011.92 1012.42 1013.38 1013.59 1013.82 1014.02 1014.16 1014.44 1014.73 1015.17 1015.69 1015.94 1016.12 1016.40 1016.71 1016.87 1017.04 1017.18 1017.26 1017.23 1017.39 1017.50 1017.76 1017.90 1017.93 1017.88 1017.93 1017.77 1017.84 1017.97
1013.91 1014.45 1014.79 1014.24 1012.87 1010.70 1009.29 1007.42 1007.04 1006.64 1007.90 1007.87 1008.45 1008.64 1009.62 1009.63 1010.02 1011.29 1011.67 1012.17 1012.50 1013.00 1013.62 1014.08 1014.08 1014.20 1014.49 1014.78 1015.12 1015.50 1015.81 1016.06 1016.27 1016.54 1016.80 1017.07 1017.23 1017.34 1017.35 1017.31 1017.29 1017.55 1017.85 1017.93 1017.90 1017.96 1017.86 1017.79 1017.85
1013.92 1014.92 1014.91 1013.62 1012.60 1011.13 1009.18 1007.28 1006.92 1007.06 1007.38 1007.63 1007.54 1008.92 1009.62 1009.82 1009.77 1011.02 1011.56 1012.20 1012.77 1013.03 1013.77 1014.19 1014.43 1014.54 1014.69 1014.97 1015.17 1015.49 1015.77 1015.94 1016.12 1016.39 1016.59 1016.87 1017.23 1017.36 1017.49 1017.47 1017.44 1017.54 1017.68 1017.78 1017.85 1017.95 1017.98 1017.95 1017.94
1013.42 1014.46 1014.52 1013.23 1012.59 1011.10 1009.45 1008.25 1007.04 1006.71 1007.29 1007.46 1007.45 1008.54 1009.28 1009.32 1009.14 1010.56 1011.95 1012.72 1013.51 1013.72 1013.91 1014.45 1014.73 1014.95 1015.08 1015.18 1015.32 1015.61 1015.89 1016.06 1016.22 1016.42 1016.57 1016.69 1017.08 1017.31 1017.39 1017.67 1017.62 1017.62 1017.70 1017.70 1017.70 1017.77 1017.95 1017.96 1017.90
1013.02 1014.06 1014.19 1013.32 1012.34 1011.07 1009.36 1008.83 1006.98 1007.02 1007.50 1007.78 1008.19 1008.16 1008.14 1009.03 1009.94 1011.42 1012.70 1013.34 1013.69 1014.23 1014.15 1014.14 1014.53 1015.04 1015.35 1015.43 1015.42 1015.46 1015.71 1016.02 1016.29 1016.51 1016.83 1016.94 1017.00 1017.23 1017.31 1017.36 1017.58 1017.57 1017.64 1017.60 1017.67 1017.70 1017.67 1017.71 1017.78
1013.02 1013.91 1013.02 1012.25 1011.44 1010.63 1009.50 1008.98 1008.05 1007.35 1008.24 1008.84 1008.90 1008.46 1008.09 1008.59 1009.96 1011.54 1013.08 1013.39 1013.91 1014.07 1014.42 1014.25 1014.14 1014.62 1015.13 1015.45 1015.79 1015.70 1015.71 1015.94 1016.22 1016.38 1016.73 1017.00 1017.11 1017.09 1017.17 1017.16 1017.26 1017.49 1017.51 1017.57 1017.65 1017.65 1017.61 1017.77 1017.94
1012.60 1012.81 1011.85 1010.76 1010.39 1009.89 1009.49 1008.74 1007.65 1007.90 1008.14 1008.54 1009.08 1009.14 1008.85 1008.94 1010.40 1012.40 1013.27 1013.98 1014.25 1014.40 1014.39 1014.56 1014.74 1015.00 1015.36 1015.14 1015.68 1015.96 1016.02 1016.18 1016.28 1016.33 1016.28 1016.60 1016.92 1017.12 1017.23 1017.31 1017.24 1017.40 1017.43 1017.53 1017.54 1017.64 1017.54 1017.55 1017.85
1012.40 1011.43 1011.12 1010.06 1009.29 1009.24 1008.99 1008.39 1008.09 1008.06 1008.57 1008.47 1008.66 1008.52 1008.86 1009.11 1010.12 1011.37 1013.70 1015.62 1016.05 1016.08 1014.90 1014.47 1014.52 1014.61 1014.89 1015.26 1015.47 1015.80 1015.99 1016.02 1016.09 1016.16 1016.34 1016.58 1016.81 1017.01 1017.07 1017.18 1017.10 1017.26 1017.24 1017.44 1017.55 1017.65 1017.49 1017.43 1017.54
1011.84 1010.88 1010.19 1009.43 1008.98 1008.90 1008.31 1008.25 1008.37 1008.46 1008.91 1008.97 1008.82 1008.90 1008.62 1008.94 1010.02 1011.59 1011.97 1013.31 1014.47 1015.55 1015.17 1014.67 1013.94 1013.87 1014.23 1014.71 1015.15 1015.25 1015.51 1015.43 1015.44 1015.69 1015.75 1016.09 1016.35 1016.49 1016.61 1016.68 1016.90 1016.95 1017.10 1017.16 1017.41 1017.59 1017.55 1017.42 1017.34
1010.99 1010.69 1009.94 1009.01 1008.52 1008.19 1007.96 1007.98 1008.29 1008.35 1008.81 1009.34 1009.12 1008.84 1008.31 1008.36 1010.33 1011.30 1011.44 1012.06 1012.29 1012.87 1013.06 1012.89 1013.03 1013.65 1013.75 1014.14 1014.43 1014.70 1014.86 1014.91 1015.05 1015.17 1015.18 1015.41 1015.58 1015.74 1016.03 1016.22 1016.48 1016.57 1016.65 1016.68 1016.93 1017.10 1017.25 1017.34 1017.36
1010.75 1010.58 1009.73 1008.98 1008.48 1008.06 1007.70 1008.18 1008.12 1007.66 1008.80 1008.99 1009.19 1008.79 1008.37 1008.21 1010.22 1010.60 1011.18 1011.49 1011.85 1011.83 1012.08 1012.18 1011.71 1012.60 1013.34 1013.55 1013.86 1014.12 1014.17 1014.40 1014.69 1014.56 1014.57 1014.76 1014.97 1015.11 1015.28 1015.61 1015.93 1015.97 1016.09 1016.29 1016.64 1016.88 1017.04 1017.33 1017.11
1011.30 1011.13 1010.75 1009.05 1008.72 1007.77 1008.28 1008.15 1007.47 1007.17 1007.69 1008.77 1008.87 1008.62 1008.29 1008.30 1010.02 1010.71 1011.10 1010.99 1011.61 1011.88 1012.01 1012.08 1011.91 1012.40 1013.05 1013.10 1013.38 1013.31 1013.74 1013.89 1013.88 1013.94 1013.99 1014.20 1014.40 1014.55 1014.86 1015.18 1015.36 1015.44 1015.77 1015.99 1016.42 1016.65 1016.87 1017.00 1017.00
1012.55 1012.13 1011.43 1009.85 1008.80 1008.51 1008.34 1008.05 1007.17 1006.41 1007.06 1007.48 1008.10 1008.33 1008.35 1008.78 1009.48 1009.94 1010.44 1010.67 1011.39 1011.41 1010.97 1010.97 1010.81 1012.00 1012.76 1012.87 1012.75 1012.77 1012.97 1013.28 1013.37 1013.38 1013.41 1013.52 1013.70 1013.93 1014.36 1014.63 1014.75 1015.00 1015.49 1015.91 1016.23 1016.29 1016.63 1016.68 1016.82
1013.16 1012.63 1011.72 1010.89 1008.98 1008.67 1008.44 1007.98 1007.51 1006.80 1007.07 1006.85 1007.11 1007.70 1008.64 1008.81 1008.71 1008.72 1009.69 1009.77 1010.92 1010.73 1010.23 1009.92 1010.73 1011.15 1012.25 1012.32 1012.41 1012.62 1012.67 1012.83 1012.90 1012.88 1013.03 1013.20 1013.22 1013.51 1013.93 1014.17 1014.40 1014.63 1015.03 1015.30 1015.73 1016.03 1016.19 1016.22 1016.24
1012.83 1012.45 1011.77 1010.43 1009.23 1009.01 1008.52 1008.13 1007.75 1007.26 1007.15 1007.30 1007.87 1007.97 1008.45 1009.24 1008.80 1009.27 1009.58 1010.00 1010.91 1010.49 1010.43 1010.69 1010.75 1011.23 1011.72 1012.16 1012.48 1012.52 1012.24 1012.26 1012.49 1012.69 1012.74 1012.90 1012.92 1013.22 1013.57 1013.77 1014.21 1014.26 1014.62 1014.93 1015.27 1015.53 1015.76 1016.14 1016.37
1012.22 1011.97 1011.19 1010.01 1008.90 1008.74 1008.62 1008.25 1008.02 1007.90 1007.79 1007.68 1007.86 1009.00 1009.32 1009.54 1009.31 1009.58 1010.28 1010.99 1010.85 1011.06 1011.21 1011.00 1010.79 1010.97 1011.15 1011.36 1011.46 1011.64 1011.86 1012.01 1012.11 1012.12 1012.23 1012.46 1012.63 1012.89 1013.10 1013.49 1013.91 1014.20 1014.62 1014.94 1015.05 1015.39 1015.88 1016.11 1016.26
1011.27 1011.15 1010.44 1009.84 1008.94 1008.97 1009.17 1008.97 1009.08 1008.54 1009.16 1009.09 1008.16 1008.28 1008.94 1009.06 1009.49 1009.83 1010.74 1011.15 1011.18 1011.30 1011.39 1011.36 1011.68 1011.77 1011.66 1011.67 1011.61 1011.92 1012.16 1012.06 1012.24 1012.22 1012.32 1012.41 1012.42 1012.45 1012.51 1012.55 1013.36 1013.82 1014.81 1015.27 1015.17 1015.69 1016.00 1016.47 1016.65
1010.80 1010.00 1009.81 1009.64 1009.65 1010.29 1010.28 1010.38 1010.61 1010.93 1011.54 1012.07 1011.89 1011.18 1009.13 1009.60 1010.24 1010.28 1010.40 1010.76 1010.81 1011.32 1011.11 1011.17 1012.01 1012.17 1012.37 1012.22 1012.25 1012.59 1012.70 1012.49 1012.62 1012.85 1013.12 1013.38 1012.91 1012.83 1012.86 1012.93 1013.32 1015.29 1016.06 1017.27 1017.63 1016.72 1016.36 1016.63 1016.90
1009.72 1009.35 1009.74 1010.06 1010.50 1011.44 1011.51 1012.02 1012.38 1012.63 1013.95 1014.67 1013.95 1012.59 1013.23 1012.05 1011.45 1011.19 1011.57 1011.61 1011.53 1011.48 1011.65 1011.48 1011.86 1012.44 1013.03 1013.24 1013.36 1013.39 1013.54 1013.63 1013.74 1013.78 1013.69 1013.57 1013.99 1013.48 1013.42 1012.78 1014.23 1014.67 1016.44 1016.48 1017.42 1016.85 1016.35 1016.09 1016.15
1009.24 1009.68 1010.42 1011.07 1011.82 1013.12 1014.09 1013.94 1015.58 1015.94 1016.80 1016.20 1015.45 1015.00 1015.65 1015.42 1014.61 1013.72 1012.47 1012.28 1012.56 1012.52 1012.41 1012.07 1012.44 1013.20 1013.41 1013.78 1013.90 1014.01 1014.21 1014.69 1014.68 1014.73 1014.46 1014.40 1014.19 1014.00 1014.12 1013.93 1014.40 1014.61 1014.59 1015.05 1016.35 1015.00 1014.44 1014.70 1014.97
1009.95 1011.18 1012.31 1013.32 1013.85 1014.95 1014.99 1015.32 1016.76 1017.38 1017.79 1017.29 1017.53 1017.58 1018.03 1018.16 1017.18 1016.12 1017.06 1015.70 1014.18 1013.92 1013.40 1013.10 1013.35 1013.94 1014.13 1014.52 1014.77 1014.86 1014.93 1015.17 1015.41 1015.50 1015.24 1014.85 1014.54 1014.30 1014.27 1014.26 1014.47 1014.68 1014.32 1013.94 1012.84 1013.21 1013.20 1013.49 1014.28
1010.86 1012.17 1013.74 1014.93 1016.03 1016.21 1015.79 1016.21 1016.81 1017.82 1018.45 1018.05 1017.29 1017.77 1019.47 1019.13 1018.97 1017.99 1017.38 1018.25 1015.33 1014.95 1014.61 1014.57 1014.54 1014.62 1014.75 1014.77 1015.14 1015.41 1015.72 1015.87 1015.94 1015.83 1015.64 1015.43 1015.10 1014.86 1014.52 1014.17 1014.17 1013.93 1013.90 1013.71 1013.23 1013.05 1013.00 1013.65 1014.20
1011.39 1012.69 1014.05 1015.99 1017.41 1017.49 1017.36 1016.94 1017.50 1017.95 1018.21 1018.13 1018.06 1017.37 1017.99 1020.05 1020.13 1019.26 1016.82 1019.85 1014.44 1015.57 1016.11 1016.09 1016.16 1015.41 1015.55 1015.55 1015.45 1015.84 1016.16 1016.30 1016.32 1016.15 1015.87 1015.77 1015.50 1015.21 1014.82 1014.41 1014.00 1013.62 1013.75 1013.47 1013.46 1013.46 1013.97 1014.12 1013.81
1011.64 1013.60 1015.32 1017.33 1018.74 1019.16 1018.50 1018.14 1017.78 1018.01 1018.51 1018.87 1018.54 1018.40 1018.56 1018.83 1020.12 1019.70 1018.80 1018.05 1016.37 1017.07 1017.61 1017.05 1016.78 1016.40 1015.78 1016.02 1016.12 1016.42 1016.46 1016.66 1016.74 1016.61 1016.39 1016.20 1015.94 1015.44 1015.00 1014.50 1014.04 1013.60 1013.04 1013.14 1013.27 1013.39 1013.56 1013.52 1013.57
1013.01 1014.57 1016.76 1018.26 1019.31 1019.84 1019.55 1018.77 1017.92 1018.49 1018.62 1018.80 1018.77 1018.99 1019.07 1018.56 1019.30 1018.40 1019.09 1018.78 1018.45 1017.68 1018.42 1017.69 1017.19 1016.99 1016.27 1016.43 1016.69 1016.76 1016.83 1016.88 1016.81 1016.84 1016.80 1016.19 1016.02 1015.82 1015.30 1014.86 1014.37 1013.90 1013.55 1013.01 1012.91 1013.03 1013.31 1013.46 1013.34
1012.76 1014.75 1016.66 1018.60 1020.05 1020.29 1020.16 1018.57 1017.89 1018.33 1018.51 1018.61 1018.85 1018.96 1018.90 1018.95 1019.32 1018.66 1018.48 1018.61 1018.62 1017.21 1017.39 1017.79 1017.78 1016.99 1016.64 1016.20 1017.11 1017.02 1016.88 1016.79 1017.05 1016.67 1016.68 1016.48 1015.81 1015.77 1015.36 1014.97 1014.57 1014.06 1013.67 1013.43 1013.09 1012.82 1012.67 1012.72 1012.93
Wind_Speed
4 6 1 4 5 6 3 5 3 4 5 1 11 7 8 4 1 4 2 9 18 15 14 15 19 19 17 18 19 16 14 14 13 14 15 15 15 15 15 14 14 14 14 13 13 14 14 13 13
3 3 4 2 5 4 5 5 8 6 3 11 13 8 5 3 6 9 7 12 16 16 12 13 19 20 18 17 18 16 15 14 13 13 15 14 14 14 14 13 12 14 12 11 11 11 12 11 11
4 1 4 4 3 5 5 5 7 2 5 4 5 5 4 3 9 11 13 15 15 12 11 13 18 19 20 17 16 16 16 16 14 13 14 14 13 13 12 11 11 12 12 11 9 8 8 9 8
3 5 5 3 4 6 5 8 9 5 5 4 6 7 4 3 13 9 19 17 14 12 10 16 19 18 18 18 16 15 14 15 13 12 13 13 11 12 12 11 11 10 11 10 8 6 5 5 5
4 3 3 3 5 6 7 14 12 7 3 2 5 4 3 5 16 20 19 16 15 12 9 12 17 18 19 19 18 16 14 14 13 13 12 12 10 9 11 11 11 10 10 9 8 5 3 1 2
5 3 4 3 4 8 9 16 7 2 5 13 11 9 2 12 20 14 15 14 13 16 11 9 14 17 17 18 17 16 15 14 14 13 12 12 10 9 8 9 11 13 11 10 8 7 5 3 2
6 4 4 4 6 8 8 19 3 7 6 3 13 8 2 13 15 14 14 14 13 13 11 8 8 12 16 15 15 15 14 14 14 14 13 12 11 10 8 7 7 9 12 12 11 8 7 5 5
5 5 4 4 3 8 6 18 9 4 3 4 9 8 7 8 19 15 13 12 10 11 11 9 6 5 6 9 15 14 14 13 13 13 13 13 12 10 10 8 7 8 6 9 10 9 8 7 7
3 3 5 4 3 10 13 10 10 5 6 4 5 4 4 12 16 16 13 11 10 7 10 12 10 7 5 5 10 13 15 14 12 11 11 9 5 6 9 9 11 10 9 8 9 10 10 10 8
5 4 8 8 4 9 9 7 5 8 2 7 8 9 11 16 18 18 13 12 11 11 10 9 12 11 8 7 5 5 7 5 5 6 7 4 5 5 8 10 13 12 11 10 9 11 10 9 3
2 6 8 13 11 8 5 9 5 4 6 4 13 8 4 6 10 13 10 7 5 8 9 10 9 8 8 6 4 2 2 3 3 6 6 6 5 4 4 3 4 4 9 4 6 6 5 6 3
2 8 7 14 11 5 5 3 7 4 3 13 17 16 8 11 9 18 14 12 12 8 8 9 9 10 8 5 6 4 4 5 5 6 6 4 3 4 5 4 5 4 4 5 4 3 5 5 5
6 10 9 15 11 7 5 4 5 1 7 9 13 8 13 13 11 16 23 19 12 10 11 9 11 13 11 10 7 7 8 7 8 7 8 6 6 6 5 6 4 5 4 4 4 4 5 5 6
5 5 9 9 8 4 2 6 4 2 12 11 14 16 14 12 19 18 21 20 20 27 20 16 15 11 12 11 12 10 8 8 7 7 8 10 7 7 7 6 6 5 6 5 5 7 5 6 4
5 7 10 4 3 6 3 11 7 9 14 13 14 13 12 14 18 21 21 27 28 29 18 16 18 12 14 13 12 9 8 8 7 8 9 10 10 9 8 7 7 7 6 7 5 5 4 4 4
6 4 5 7 8 10 6 11 16 11 8 16 14 13 13 8 13 20 23 24 25 21 10 9 11 11 13 11 11 8 7 6 7 7 7 12 11 9 7 6 6 6 4 5 4 4 4 4 4
7 4 5 13 4 7 5 12 12 12 9 10 15 15 13 4 8 22 23 23 21 17 14 9 11 12 14 9 8 8 9 8 8 8 8 11 11 10 6 5 5 5 4 4 4 4 5 3 3
6 4 5 6 11 5 6 7 8 10 5 11 8 11 8 8 7 9 24 20 13 14 8 8 9 15 15 10 6 4 5 5 4 5 7 9 9 10 8 5 5 5 4 3 1 4 2 3 4
5 7 11 14 11 3 7 6 9 10 8 9 5 11 11 6 4 10 12 13 10 1 3 7 11 13 9 3 4 3 5 3 3 4 6 7 6 8 9 7 5 5 5 5 6 5 5 3 1
8 9 11 9 7 3 7 10 5 6 8 7 9 13 11 6 8 11 15 10 7 5 6 6 11 11 9 6 3 3 3 3 3 3 5 6 6 7 7 8 6 6 4 5 5 4 2 2 3
14 6 7 9 5 4 7 11 8 10 11 23 2 11 15 19 13 9 10 6 7 6 8 7 6 3 2 1 2 2 3 2 1 1 2 4 6 7 10 10 7 7 2 3 3 1 2 2 2
9 13 17 11 3 5 3 10 6 8 20 25 23 13 13 10 6 7 8 8 12 9 10 11 7 6 4 3 4 2 1 4 2 2 4 7 10 8 5 6 0 12 11 13 13 8 2 2 4
10 6 5 6 5 5 1 3 2 13 16 24 25 10 9 9 8 10 10 11 10 12 11 11 12 12 9 6 4 3 3 4 8 6 6 6 8 10 11 4 12 11 5 8 11 9 7 3 4
6 3 6 5 3 5 4 1 5 6 5 17 21 26 21 21 16 9 9 11 9 8 10 12 14 10 11 11 9 10 12 8 8 7 7 5 5 4 8 7 9 4 5 13 11 12 13 4 5
9 6 5 6 5 5 1 4 4 1 5 15 18 22 21 18 18 19 14 8 7 7 8 10 11 10 9 9 9 8 8 8 8 6 4 6 6 4 5 2 4 4 9 15 16 17 13 6 6
2 5 6 5 4 5 4 4 4 6 4 6 16 18 16 18 16 18 21 17 8 11 11 10 9 10 10 9 10 9 9 6 6 6 5 5 3 3 4 4 3 5 9 10 11 10 6 3 4
2 1 3 6 3 3 3 2 3 7 10 12 9 15 17 14 15 18 27 26 15 12 11 9 7 8 8 8 8 8 7 8 7 7 6 4 5 5 5 4 4 4 5 7 8 10 1 2 3
5 2 3 4 1 5 5 4 5 6 4 5 8 11 11 10 4 9 12 19 16 13 8 8 7 7 7 8 7 6 6 7 6 6 6 5 5 6 6 7 6 6 6 4 4 3 2 3 4
4 4 7 5 3 6 3 6 5 7 5 7 6 7 6 9 6 6 6 8 7 1 8 6 7 6 8 7 6 7 6 6 6 5 5 5 4 5 5 5 6 6 6 6 5 6 4 5 3
4 5 6 7 4 2 3 8 6 8 8 7 8 8 6 6 3 3 2 5 9 5 7 7 4 6 5 6 5 6 6 6 7 6 5 5 4 4 5 5 5 6 7 6 5 7 6 8 6
Wind_Direction
271 273 151 51 41 62 298 267 196 276 186 190 153 173 133 47 107 203 16 143 136 143 155 150 145 139 137 135 131 130 126 120 118 117 116 117 118 118 119 120 117 111 107 102 99 99 104 104 103
276 313 42 62 81 51 275 236 182 166 227 118 104 107 55 91 84 117 100 149 139 140 149 149 147 140 140 139 134 134 132 127 126 126 126 127 127 127 127 126 125 120 116 110 104 106 109 108 107
283 84 78 99 134 190 215 250 250 322 204 187 106 55 66 44 111 143 136 144 136 133 146 152 147 146 143 143 140 140 139 134 135 137 135 135 136 135 136 135 133 130 127 120 117 111 108 108 106
20 5 20 99 264 271 246 279 286 114 274 108 106 57 64 333 161 139 140 145 133 137 146 151 151 148 145 145 144 143 141 136 136 140 141 143 146 147 146 146 141 141 137 134 134 130 111 108 105
35 55 25 15 272 267 249 269 235 184 63 88 124 86 29 21 114 132 143 141 132 136 142 151 150 149 150 149 148 149 146 140 141 146 148 153 154 154 157 157 152 153 150 151 154 162 161 149 93
16 88 29 292 284 275 307 285 173 145 128 116 93 106 104 138 129 144 144 136 138 142 144 153 153 152 154 155 153 154 152 150 150 152 156 160 161 160 164 175 165 167 169 170 173 184 205 239 267
123 80 235 250 259 338 304 333 195 172 126 220 156 119 215 154 140 147 141 136 137 133 135 143 153 159 158 157 155 157 157 157 159 162 162 161 167 169 176 188 180 182 177 186 177 191 215 240 274
110 94 278 261 34 282 298 345 338 94 158 121 155 172 194 173 148 144 135 129 133 139 140 147 137 147 152 161 161 162 163 163 164 167 168 166 174 177 178 192 201 214 224 196 181 189 214 229 247
104 46 258 261 21 286 301 2 316 44 101 354 8 117 197 135 115 126 127 116 127 147 158 156 153 158 157 158 172 167 169 170 172 172 177 173 171 181 192 191 207 209 212 188 191 202 214 223 234
109 130 246 186 233 262 297 328 295 4 147 59 70 61 107 131 134 140 145 153 160 164 175 171 162 164 159 173 178 166 174 168 165 166 183 185 191 188 199 205 207 213 213 210 203 211 221 234 222
213 205 248 278 248 243 267 303 308 29 16 160 149 135 117 117 123 124 155 154 162 173 173 178 169 159 167 168 156 173 159 160 184 195 183 184 187 209 219 219 221 208 216 214 213 219 224 221 206
218 252 241 269 272 278 238 262 323 65 232 152 150 150 155 178 144 135 97 65 25 327 215 182 179 161 176 155 171 171 178 186 192 204 200 182 191 202 214 223 212 199 213 206 221 228 230 236 217
198 265 272 261 260 248 272 256 248 93 144 155 153 174 171 175 111 122 122 114 100 277 261 225 181 175 177 170 183 184 199 194 199 199 202 191 197 205 200 218 198 206 198 201 215 230 232 241 232
279 269 268 289 263 250 264 281 119 254 149 164 174 195 198 216 127 136 133 141 152 222 226 194 183 188 182 181 184 193 194 203 198 202 211 205 199 204 197 204 204 210 206 205 209 216 220 236 239
299 334 326 272 284 286 14 325 276 242 164 180 203 214 227 229 127 152 155 159 183 215 219 202 180 171 191 188 187 191 200 197 202 209 208 213 209 208 199 200 207 215 208 204 208 224 214 240 236
359 26 5 295 340 290 99 274 267 253 203 193 211 219 222 240 142 166 177 169 190 202 176 180 184 178 193 194 192 189 201 202 206 207 210 217 218 211 205 203 201 210 203 196 186 204 213 226 223
1 275 308 311 250 267 173 273 272 250 214 236 198 210 218 204 176 166 177 171 187 207 199 165 167 186 201 194 190 195 194 206 213 211 213 215 217 216 205 205 213 187 195 190 208 198 196 185 247
253 296 292 273 299 164 285 268 297 303 269 225 196 200 167 190 174 161 170 186 191 218 208 163 187 183 195 193 183 191 185 195 210 210 212 213 218 213 209 217 202 189 188 227 184 223 195 189 225
237 262 262 278 271 282 295 286 301 306 309 268 113 138 137 162 139 129 143 156 178 147 156 203 188 203 180 168 171 195 210 200 229 224 229 222 204 210 212 219 205 202 204 201 194 202 193 239 129
250 252 267 268 252 304 309 296 314 326 292 262 156 149 149 148 155 146 146 155 166 177 190 184 195 191 186 192 185 172 160 208 214 216 236 234 216 209 211 211 212 200 198 214 211 170 176 200 165
269 242 257 241 279 345 344 313 349 317 19 353 151 155 157 160 164 154 138 141 122 110 101 81 55 53 63 194 100 31 31 336 318 249 259 278 253 220 212 206 192 200 196 292 261 214 192 217 356
245 256 252 256 278 269 88 289 340 7 14 12 356 326 157 155 119 95 105 98 100 88 77 74 75 54 17 17 49 50 208 229 272 358 33 18 11 354 293 256 249 62 64 33 355 337 299 121 241
232 264 258 272 271 97 327 304 336 41 3 0 346 308 342 35 71 100 92 91 78 77 74 67 61 50 39 50 49 73 69 19 39 44 41 32 25 25 15 48 97 93 50 27 343 327 329 244 185
273 305 31 35 69 56 325 53 37 23 346 9 14 25 29 8 14 36 99 98 83 74 75 76 72 51 46 51 42 49 53 47 51 39 50 24 26 14 34 80 107 132 151 159 238 247 242 231 204
46 53 350 337 345 211 287 54 131 146 72 82 55 35 22 19 23 31 349 19 64 70 71 73 71 59 51 45 42 46 60 61 62 53 38 24 32 20 353 19 194 183 186 191 210 226 235 190 195
72 133 153 238 232 260 7 226 150 111 129 75 90 77 32 22 13 27 23 308 64 52 46 46 56 63 52 52 42 35 35 54 61 55 51 36 19 4 331 321 298 252 204 222 226 221 227 234 266
287 7 177 105 334 43 245 308 193 91 62 54 53 86 83 29 4 5 28 300 47 46 43 47 39 53 54 53 50 40 35 37 40 37 36 20 6 359 357 348 317 292 235 240 241 249 268 298 307
90 129 59 17 201 272 281 261 237 358 34 82 83 81 84 101 47 14 19 335 12 6 1 44 51 51 48 43 42 38 39 40 37 32 33 27 358 359 6 352 342 325 297 272 265 288 316 316 301
1 65 52 108 130 187 270 252 208 197 206 170 149 126 110 109 114 77 312 351 317 263 339 13 34 45 48 42 34 30 12 21 41 34 7 9 359 347 357 360 346 347 318 290 244 234 241 258 259
114 131 142 130 222 229 151 267 189 193 201 174 169 153 133 127 127 84 188 247 233 142 39 359 16 35 38 41 18 23 8 7 3 8 352 346 7 334 334 340 352 343 340 330 270 259 253 248 243